STARLINK-30512, 57976

Orbit data source: Space-Track

STARLINK-30512, 57976 is a payload satellite owned by SpaceX/Seattle (US) in LEO that was launched on Sat, 30 Sep 2023 UTC via an FALCON 9 launch vehicle from the Air Force Eastern Test Range (AFETR). Payload-class satellites include a variety of spacecraft equipped with specific instruments for various scientific and technological missions. These include communications satellites like Starlink; space stations such as the ISS; scientific satellites like the Hubble; Earth observation satellites from companies like Planet Labs, Umbra, and HawkEye 360; GPS; miniature CubeSats for education and research; and military/defense satellites.

Loading next visibility...
Identifier
57976, 2023-151N
Orbit
LEO
Country
Flag of USUS
Related business
Manufacturer
SpaceX/Seattle
Mission
Operational Commercial Communications
Bus & Motor
STARLINK V2M, Unknown motor
Mass
730 kg wet, ~700 kg dry
Launch date (UTC)
2023-09-30 (3 years ago)
Launch vehicle
FALCON 9
Launch site
Air Force Eastern Test Range (AFETR)
Object type
Payload
Rocket body
Debris
Shape & HBR
Box + 2 Pan, 17.7 m
Radar Cross Section
33.884 m², Large (>1 m²)

Expand to show TLE details & history
Last TLE update: 15 hours ago

TLE from 15 hours ago
0 STARLINK-30512
1 57976U 23151N   26192.76597028  .00001190  00000-0  52795-4 0  9993
2 57976  43.0029 355.1053 0001202 226.9846 133.0905 15.27566599154745
Epoch: 2026-07-11T18:22Z
TLE epoch observation values (Epoch: 2026-07-11T18:22:59.832Z)
Latitude
-0.00001°
Longitude
149.6815°
Altitude
483.428 km
Speed
7.625 km/s
True Right ascension
23h 40m 25s
True Declination
0° 00' 00"
Sunlit
Object was in full shadow at epoch
Visualization orbit readout
Latitude
Unknown
Longitude
Unknown
Altitude
Unknown
Speed
Unknown
Apparent Right ascension
Unknown
Apparent Declination
Unknown
Sunlit
N/A
Visualization observer readout
Local Sidereal Time
21:17:26
Azimuth
Unknown
Elevation
Unknown
Doppler factor
Unknown
Orbital elements
Apogee altitude
485.859 km
Perigee altitude
484.209 km
Semi-major axis
6,863.171 km
Eccentricity
0.00012
Inclination
43.0029°
RAAN
355.1053°
Arg. of periapsis
226.9846°
True anomaly
133.10056°
Mean anomaly
133.0905°
Eccentric anomaly
133.09553°
Mean motion
3.8173 °/min
Orbital period
94.31 mins
BSTAR
0.000052795
Loading maneuver chart data...
Computing Atmospheric mass density...
Loading historical data...
Loading historical data...
Loading historical data...
Loading historical data...
Loading historical data...
Loading historical data...
Loading historical data...

Documentation

Showing up to 5 results
|